Regional Weather Roundup
Issued by NWS Glasgow, MT

Home | Current Version | Previous Version | Text Only | Print | Product List | Glossary On
Versions: 1 2 3 4 5 6 7 8 9 10 11 12 13 14 15 16 17 18 19 20 21 22 23 24 25 26 27 28 29 30 31 32 33 34 35 36 37 38 39 40 41 42 43 44 45 46 47 48 49 50
000
ASUS45 KGGW 281015
RWRGGW
HOURLY REGIONAL WEATHER ROUNDUP FOR NORTHEAST MONTANA
NATIONAL WEATHER SERVICE GLASGOW MONTANA
400 AM MDT FRI AUG 28 2015

NOTE: "FAIR" INDICATES FEW OR NO CLOUDS BELOW 12,000 FEET WITH NO
SIGNIFICANT WEATHER AND/OR OBSTRUCTIONS TO VISISBILITY.

NORTHEAST MONTANA


CITY           SKY/WX    TMP DP  RH WIND       PRES   REMARKS
GLASGOW        CLEAR     60  51  72 CALM      29.88R
PLENTYWOOD       N/A     62  52  69 N2          N/A
WOLF POINT     CLEAR     58  54  86 S5        29.87S
JORDAN           N/A     54  44  69 W6        29.93R
WINNETT          N/A     66  39  37 SW3G12      N/A
SIDNEY         CLEAR     61  55  82 S5        29.87R
GLENDIVE       CLEAR     59  54  82 SW6       29.92R
MALTA            N/A     61  52  72 SW3         N/A
SCOBEY           N/A     54  45  71 CALM      29.88S
OPHEIM           N/A     66  45  45 SW7       29.61

FORT PECK REPORTS


CITY           SKY/WX    TMP DP  RH WIND       PRES   REMARKS
FORT PECK        N/A     66  61  84 S3          N/A
THE PINES        N/A     67  52  58 S3          N/A

SOUTHEAST MONTANA


CITY           SKY/WX    TMP DP  RH WIND       PRES   REMARKS
BILLINGS       CLEAR     67  47  48 SW17      30.05S
MILES CITY     CLEAR     63  46  54 W5        29.95R
BAKER          PTCLDY    64  52  64 W8        29.96R
LIVINGSTON     PTCLDY    59  41  51 NW13      30.15R

CENTRAL MONTANA


CITY           SKY/WX    TMP DP  RH WIND       PRES   REMARKS
HAVRE          CLOUDY    60  44  55 W8        29.95R
LEWISTOWN      CLOUDY    59  42  53 W6        30.08R
GREAT FALLS    CLOUDY    63  38  39 SW13      30.04S HAZE
CUT BANK       CLOUDY    67  38  34 W16       30.01S HAZE
HELENA         CLOUDY    63  43  48 CALM      30.12R SMOKE
BUTTE          CLOUDY    47  43  86 SE3       30.25R
BOZEMAN        FAIR      50  46  86 NW5       30.17S

WESTERN MONTANA


CITY           SKY/WX    TMP DP  RH WIND       PRES   REMARKS
MISSOULA       CLOUDY    59  41  51 E8        30.09S HAZE
KALISPELL      NOT AVBL

NORTH DAKOTA


CITY           SKY/WX    TMP DP  RH WIND       PRES   REMARKS
WILLISTON      CLEAR     65  62  90 S3        29.86S
DICKINSON      PTCLDY    60  54  80 S7        29.90F
MINOT          CLEAR     68  58  70 SW15      29.82S
BISMARCK       PTCLDY    61  59  93 CALM      29.91S

SOUTHERN SASKATCHEWAN


CITY           SKY/WX    TMP DP  RH WIND       PRES   REMARKS
REGINA         NOT AVBL
MOOSE JAW      CLEAR     55  55 100 W2        29.84  SMOKE
ESTEVAN        MOCLDY    61  57  88 SW7       29.82S
SWIFT CURRENT  CLEAR     57  50  77 SW15      29.85S HAZE




USA.gov is the U.S. government's official web portal to all federal, state and local government web resources and services.